Wetterstats.de || Aktuelle Messwerte / Archiv || Stationsstandorte || Wetterblog || Wissenswertes


Monatsübersicht für Juli 2019 Diagramm
 
Wetter Information zur Wetteranzeige
Zeitraffer
Tageslänge (hh:mm)
Höchsttemperatur in °C
Uhrzeit
Tiefsttemperatur in °C
Uhrzeit
Luftfeuchte (max., in %)
Uhrzeit
Luftfeuchte (min., in %)
Uhrzeit
Luftdruck (max., in hPa)
Uhrzeit
Luftdruck (min., in hPa)
Uhrzeit
Luftdruck (Ø, in hPa)
Regenrate (max, mm/h)
Uhrzeit
Niederschlag in mm
Niederschlagsdauer (hh:mm)
Verdunstung in mm
Solar in W/m² (Ø)
Solar in W/m² (max.)
UV-Index (max.)
Sonnenscheindauer (hh:mm)
Windrichtung (Ø)
Windstärke (Ø in km/h)
Windstärke (Ø in bft)
Windböe (max., in km/h)
Uhrzeit
Windböe (max., in bft)
Uhrzeit
Taupunkt (max., in °C)
Uhrzeit
Taupunkt (min., in °C)
Uhrzeit
Windchill (min., in °C)
Uhrzeit
Gewitterindex (max.)
Uhrzeit
Waldbrandindex (max.)
Uhrzeit
Graslandfeuerindex (max.)
Uhrzeit
Staubsturm-Index (max.)
Uhrzeit
01
Zeitraffer
16:49
28.1
16:05 Uhr
20.2
07:10 Uhr

59
07:00 Uhr
34
17:55 Uhr
1014.8
23:55 Uhr

1010.6
16:35 Uhr
1012.4
0,000
00:04 Uhr
0,000
00:00:00
0.000
177
912
13:25 Uhr
4.7
12:45 Uhr

03:10:00
0,8
0
16,1
23:00 Uhr

3
14.1
14:35 Uhr
8.2
01:20 Uhr
20.2
07:10 Uhr
3
00:04 Uhr
0.0
00:04 Uhr
0.0
00:04 Uhr
0.0
00:04 Uhr
02
Zeitraffer
16:48
22.0
15:10 Uhr
16.0
23:55 Uhr

66
04:10 Uhr
37
14:50 Uhr
1019.3
23:30 Uhr

1014.7
00:00 Uhr
1017.2
0,000
00:00 Uhr
0,000
00:00:00
0.000
192
956
13:20 Uhr
5.4
13:00 Uhr

04:22:00
1,3
0
11,3
16:35 Uhr

2
12.5
09:50 Uhr
5.2
22:15 Uhr
16.0
23:55 Uhr
3
00:00 Uhr
0.0
00:00 Uhr
0.0
00:00 Uhr
0.0
00:00 Uhr
03
Zeitraffer
16:47
20.7
15:09 Uhr
11.6
04:55 Uhr

71
05:04 Uhr
43
12:59 Uhr
1021.5
23:29 Uhr

1019.2
00:00 Uhr
1020.7
0,000
00:00 Uhr
0,000
00:00:00
0.000
204
830
10:14 Uhr
3.7
10:54 Uhr

05:17:00
0,8
0
9,7
12:14 Uhr

2
8.5
10:19 Uhr
5.6
00:15 Uhr
11.6
04:55 Uhr
0
00:00 Uhr
0.0
00:00 Uhr
0.0
00:00 Uhr
0.0
00:00 Uhr
04
Zeitraffer
16:45
23.7
16:04 Uhr
11.1
04:59 Uhr

72
04:59 Uhr
35
11:24 Uhr
1022.4
07:34 Uhr

1015.5
23:39 Uhr
1020.1
0,000
00:04 Uhr
0,000
00:00:00
3.531
326
874
12:44 Uhr
4.9
12:44 Uhr

08:56:00
0,7
0
9,7
11:09 Uhr

2
9.7
22:44 Uhr
5.0
11:24 Uhr
11.1
04:59 Uhr
2
22:49 Uhr
3.5
22:49 Uhr
5.9
22:49 Uhr
1.2
22:49 Uhr
05
Zeitraffer
16:45
21.2
17:05 Uhr
17.3
05:19 Uhr

69
05:24 Uhr
52
00:19 Uhr
1015.3
00:04 Uhr

1012.0
23:40 Uhr
1012.9
0,000
00:04 Uhr
0,000
00:00:00
1.346
98
387
14:30 Uhr
2.7
14:25 Uhr

00:00:00
0,6
0
9,7
07:49 Uhr

2
12.6
18:55 Uhr
9.0
00:29 Uhr
17.3
05:19 Uhr
6
22:50 Uhr
3.2
16:05 Uhr
5.9
12:20 Uhr
1.7
16:35 Uhr
06
Zeitraffer
16:43
23.2
11:10 Uhr
15.4
05:20 Uhr

92
21:40 Uhr
54
11:15 Uhr
1012.1
00:00 Uhr

1005.7
17:05 Uhr
1008.0
4,800
21:00 Uhr
3,200
00:15:00
1.447
121
1020
11:10 Uhr
3.5
11:10 Uhr

00:15:00
0,3
0
11,3
18:35 Uhr

2
15.7
18:55 Uhr
11.7
02:25 Uhr
15.4
05:20 Uhr
8
22:20 Uhr
3.1
13:00 Uhr
5.7
12:55 Uhr
1.3
13:20 Uhr
07
Zeitraffer
16:41
19.5
12:25 Uhr
12.8
04:30 Uhr

90
00:00 Uhr
45
16:15 Uhr
1012.1
23:50 Uhr

1006.5
00:00 Uhr
1008.9
0,000
00:00 Uhr
0,000
00:00:00
1.829
169
1050
12:20 Uhr
4.6
12:20 Uhr

01:10:00
1,0
0
9,7
10:40 Uhr

2
13.7
00:00 Uhr
6.4
19:20 Uhr
12.8
04:30 Uhr
6
00:00 Uhr
0.9
15:40 Uhr
3.8
16:55 Uhr
0.0
00:00 Uhr
08
Zeitraffer
16:40
19.1
15:40 Uhr
12.5
03:25 Uhr

85
17:15 Uhr
53
15:00 Uhr
1014.7
23:55 Uhr

1012.2
00:00 Uhr
1013.4
4,800
16:45 Uhr
0,600
00:03:00
1.397
126
923
14:25 Uhr
3.8
14:20 Uhr

00:26:00
0,6
0
9,7
12:05 Uhr

2
12.9
17:00 Uhr
7.0
00:05 Uhr
12.5
03:25 Uhr
3
16:50 Uhr
1.6
15:00 Uhr
4.2
15:10 Uhr
0.0
00:00 Uhr
09
Zeitraffer
16:38
19.9
16:10 Uhr
10.7
04:55 Uhr

83
04:50 Uhr
46
15:55 Uhr
1016.1
23:55 Uhr

1014.7
00:00 Uhr
1015.2
0,000
00:00 Uhr
0,000
00:00:00
2.210
220
1008
13:15 Uhr
4.5
13:15 Uhr

04:09:00
0,5
0
8,0
07:50 Uhr

2
10.8
09:50 Uhr
7.7
15:50 Uhr
10.7
04:55 Uhr
2
09:10 Uhr
1.2
15:55 Uhr
3.8
16:15 Uhr
0.0
00:00 Uhr
10
Zeitraffer
16:36
22.3
18:35 Uhr
11.4
04:50 Uhr

84
05:20 Uhr
44
19:05 Uhr
1016.6
10:55 Uhr

1013.7
18:50 Uhr
1015.5
0,000
00:00 Uhr
0,000
00:00:00
1.905
188
922
12:55 Uhr
4.4
13:35 Uhr

01:54:00
0,6
0
9,7
18:10 Uhr

2
12.8
13:10 Uhr
8.4
03:00 Uhr
11.4
04:50 Uhr
5
22:15 Uhr
2.5
18:25 Uhr
4.4
18:40 Uhr
0.0
00:00 Uhr
11
Zeitraffer
16:33
24.1
15:49 Uhr
11.9
04:59 Uhr

83
04:59 Uhr
39
14:04 Uhr
1014.5
00:04 Uhr

1009.8
20:04 Uhr
1012.0
0,000
00:04 Uhr
0,000
00:00:00
3.200
296
860
11:44 Uhr
4.1
13:14 Uhr

08:07:00
0,5
0
11,3
13:24 Uhr

2
13.2
23:24 Uhr
8.4
15:09 Uhr
11.9
04:59 Uhr
7
23:24 Uhr
3.0
14:04 Uhr
5.1
14:29 Uhr
0.5
13:29 Uhr
12
Zeitraffer
16:31
20.9
17:59 Uhr
16.5
05:39 Uhr

93
07:34 Uhr
65
18:24 Uhr
1010.3
00:04 Uhr

1007.5
18:19 Uhr
1008.9
2,400
00:29 Uhr
4,200
00:21:00
1.194
115
528
12:24 Uhr
2.8
12:24 Uhr

00:18:00
0,6
0
11,3
15:59 Uhr

2
16.9
12:24 Uhr
13.8
00:04 Uhr
16.5
05:39 Uhr
10
01:19 Uhr
3.1
00:04 Uhr
5.2
00:04 Uhr
0.3
00:04 Uhr
13
Zeitraffer
16:29
25.6
12:40 Uhr
15.4
06:00 Uhr

95
06:05 Uhr
40
13:25 Uhr
1013.6
23:35 Uhr

1008.4
00:09 Uhr
1010.2
9,600
14:50 Uhr
2,200
00:11:00
2.921
284
929
13:20 Uhr
4.3
13:00 Uhr

06:14:00
1,0
0
24,1
14:10 Uhr

4
17.4
16:00 Uhr
10.8
13:10 Uhr
15.4
06:00 Uhr
10
22:30 Uhr
5.9
07:30 Uhr
5.9
00:04 Uhr
3.1
14:10 Uhr
14
Zeitraffer
16:27
21.3
15:30 Uhr
15.2
04:10 Uhr

94
02:25 Uhr
64
18:00 Uhr
1016.5
23:25 Uhr

1013.2
03:30 Uhr
1014.8
2,400
01:45 Uhr
0,200
00:01:00
0.914
88
412
13:50 Uhr
2.7
14:35 Uhr

00:03:00
0,4
0
8,0
14:35 Uhr

2
15.6
14:20 Uhr
12.1
23:00 Uhr
15.2
04:10 Uhr
9
00:00 Uhr
4.8
17:30 Uhr
5.9
00:00 Uhr
1.7
16:35 Uhr
15
Zeitraffer
16:25
18.9
17:50 Uhr
15.2
09:40 Uhr

81
06:55 Uhr
61
17:20 Uhr
1016.5
00:15 Uhr

1013.9
20:15 Uhr
1015.2
0,000
00:00 Uhr
0,000
00:00:00
0.864
84
410
11:55 Uhr
2.2
11:50 Uhr

00:00:00
0,2
0
6,4
19:15 Uhr

1
12.6
00:00 Uhr
8.7
23:30 Uhr
15.2
09:40 Uhr
5
00:00 Uhr
5.0
17:10 Uhr
5.9
00:00 Uhr
1.4
07:50 Uhr


 
Wetter Information zur Wetteranzeige
Zeitraffer
Tageslänge (hh:mm)
Höchsttemperatur in °C
Uhrzeit
Tiefsttemperatur in °C
Uhrzeit
Luftfeuchte (max., in %)
Uhrzeit
Luftfeuchte (min., in %)
Uhrzeit
Luftdruck (max., in hPa)
Uhrzeit
Luftdruck (min., in hPa)
Uhrzeit
Luftdruck (Ø, in hPa)
Regenrate (max, mm/h)
Uhrzeit
Niederschlag in mm
Niederschlagsdauer (hh:mm)
Verdunstung in mm
Solar in W/m² (Ø)
Solar in W/m² (max.)
UV-Index (max.)
Sonnenscheindauer (hh:mm)
Windrichtung (Ø)
Windstärke (Ø in km/h)
Windstärke (Ø in bft)
Windböe (max., in km/h)
Uhrzeit
Windböe (max., in bft)
Uhrzeit
Taupunkt (max., in °C)
Uhrzeit
Taupunkt (min., in °C)
Uhrzeit
Windchill (min., in °C)
Uhrzeit
Gewitterindex (max.)
Uhrzeit
Waldbrandindex (max.)
Uhrzeit
Graslandfeuerindex (max.)
Uhrzeit
Staubsturm-Index (max.)
Uhrzeit
16
Zeitraffer
16:22
21.3
17:50 Uhr
13.3
05:20 Uhr

90
05:30 Uhr
56
19:25 Uhr
1014.1
01:30 Uhr

1011.7
19:05 Uhr
1012.8
0,000
00:00 Uhr
0,000
00:00:00
1.016
93
276
14:35 Uhr
2.3
14:05 Uhr

00:00:00
0,4
0
8,0
04:20 Uhr

2
13.7
17:50 Uhr
9.1
00:10 Uhr
13.3
05:20 Uhr
5
17:50 Uhr
5.9
00:00 Uhr
5.9
00:00 Uhr
1.6
04:25 Uhr
17
Zeitraffer
16:20
23.3
16:50 Uhr
12.3
05:20 Uhr

88
05:20 Uhr
43
15:45 Uhr
1014.1
09:10 Uhr

1011.7
18:24 Uhr
1013.1
0,000
00:00 Uhr
0,000
00:00:00
2.337
234
884
13:45 Uhr
4.5
13:20 Uhr

04:19:00
0,5
0
12,9
23:55 Uhr

2
13.9
13:10 Uhr
9.2
15:50 Uhr
12.3
05:20 Uhr
5
11:35 Uhr
5.9
00:00 Uhr
5.9
00:00 Uhr
2.1
23:55 Uhr
18
Zeitraffer
16:18
26.0
16:20 Uhr
13.2
04:50 Uhr

80
04:50 Uhr
34
16:20 Uhr
1012.5
02:00 Uhr

1009.5
18:30 Uhr
1011.2
0,000
00:00 Uhr
0,000
00:00:00
3.378
290
881
13:45 Uhr
4.2
12:35 Uhr

08:01:00
1,5
0
17,7
09:15 Uhr

3
12.5
11:10 Uhr
8.6
16:40 Uhr
13.2
04:50 Uhr
4
00:00 Uhr
5.9
00:00 Uhr
5.9
00:00 Uhr
2.6
09:50 Uhr
19
Zeitraffer
16:15
25.6
13:45 Uhr
17.5
05:25 Uhr

77
23:55 Uhr
52
00:00 Uhr
1013.6
23:40 Uhr

1009.9
03:15 Uhr
1011.5
0,000
00:00 Uhr
0,000
00:00:00
1.626
132
691
13:20 Uhr
3.0
13:35 Uhr

00:24:00
0,3
0
8,0
00:00 Uhr

2
17.6
16:45 Uhr
9.6
02:05 Uhr
17.5
05:25 Uhr
10
23:40 Uhr
5.9
00:00 Uhr
5.9
00:00 Uhr
1.7
00:00 Uhr
20
Zeitraffer
16:13
29.0
16:55 Uhr
16.2
04:50 Uhr

93
23:50 Uhr
37
16:30 Uhr
1014.6
23:00 Uhr

1009.7
21:55 Uhr
1012.9
19,200
23:05 Uhr
7,800
00:34:00
3.200
310
769
13:45 Uhr
4.0
12:50 Uhr

06:58:00
1,5
0
24,1
13:45 Uhr

4
17.3
23:15 Uhr
12.4
16:30 Uhr
16.2
04:50 Uhr
11
22:50 Uhr
5.9
00:00 Uhr
5.9
00:00 Uhr
2.9
15:30 Uhr
21
Zeitraffer
16:10
26.2
13:05 Uhr
17.5
05:45 Uhr

95
00:35 Uhr
48
17:55 Uhr
1021.0
23:50 Uhr

1012.0
01:55 Uhr
1015.9
9,600
00:05 Uhr
1,400
00:07:00
2.159
208
881
10:55 Uhr
4.0
12:15 Uhr

03:00:00
0,6
0
12,9
00:20 Uhr

2
18.4
10:30 Uhr
13.1
20:35 Uhr
17.3
00:20 Uhr
11
00:00 Uhr
0.0
00:00 Uhr
0.7
18:25 Uhr
0.0
00:00 Uhr
22
Zeitraffer
16:07
25.3
11:35 Uhr
16.2
05:40 Uhr

85
23:45 Uhr
51
13:20 Uhr
1021.8
08:05 Uhr

1020.1
21:15 Uhr
1021.2
0,000
00:00 Uhr
0,000
00:00:00
2.032
186
524
11:35 Uhr
3.0
11:30 Uhr

03:17:00
0,6
0
12,9
23:25 Uhr

2
16.9
17:45 Uhr
13.2
00:05 Uhr
16.2
05:40 Uhr
10
22:00 Uhr
1.4
13:05 Uhr
5.4
12:25 Uhr
0.0
00:00 Uhr
23
Zeitraffer
16:04
29.2
16:20 Uhr
18.8
03:02 Uhr

84
00:00 Uhr
47
16:45 Uhr
1020.9
08:40 Uhr

1018.1
19:05 Uhr
1019.4
0,000
00:00 Uhr
0,000
00:00:00
3.327
341
841
10:55 Uhr
5.1
12:20 Uhr

07:52:00
1,1
0
16,1
13:50 Uhr

3
19.3
11:55 Uhr
14.9
23:55 Uhr
18.8
03:02 Uhr
12
22:00 Uhr
2.2
18:10 Uhr
5.9
12:20 Uhr
1.2
20:25 Uhr
24
Zeitraffer
16:01
31.2
18:00 Uhr
18.0
05:35 Uhr

85
05:35 Uhr
30
16:15 Uhr
1018.8
00:25 Uhr

1015.5
18:20 Uhr
1017.1
0,000
00:00 Uhr
0,000
00:00:00
3.962
322
818
13:20 Uhr
5.0
12:45 Uhr

08:31:00
1,9
0
17,7
15:55 Uhr

3
18.9
08:55 Uhr
11.2
14:10 Uhr
18.0
05:35 Uhr
10
04:00 Uhr
5.2
16:05 Uhr
5.9
00:00 Uhr
2.6
15:55 Uhr
25
Zeitraffer
15:59
32.2
15:15 Uhr
18.9
05:10 Uhr

84
05:15 Uhr
35
14:05 Uhr
1017.9
07:55 Uhr

1015.3
17:20 Uhr
1016.6
0,000
00:00 Uhr
0,000
00:00:00
4.013
301
754
12:15 Uhr
4.2
13:20 Uhr

08:24:00
3,3
1
19,3
13:50 Uhr

3
19.1
10:05 Uhr
12.7
20:00 Uhr
18.9
05:10 Uhr
11
00:25 Uhr
5.7
17:10 Uhr
5.9
00:00 Uhr
3.4
19:35 Uhr
26
Zeitraffer
15:55
29.6
18:00 Uhr
18.7
05:20 Uhr

80
04:50 Uhr
33
17:15 Uhr
1015.5
00:00 Uhr

1009.4
20:00 Uhr
1012.8
0,000
00:00 Uhr
0,000
00:00:00
4.420
310
789
12:55 Uhr
4.6
12:50 Uhr

08:28:00
6,3
1
30,6
14:20 Uhr

5
16.9
21:45 Uhr
11.5
17:15 Uhr
18.3
04:15 Uhr
11
21:55 Uhr
5.8
17:35 Uhr
5.9
00:00 Uhr
3.5
11:50 Uhr
27
Zeitraffer
15:53
27.4
18:05 Uhr
19.2
06:15 Uhr

77
05:55 Uhr
40
16:10 Uhr
1009.5
00:00 Uhr

1002.6
18:50 Uhr
1006.2
0,000
00:00 Uhr
0,000
00:00:00
3.937
261
914
13:45 Uhr
3.8
12:15 Uhr

06:27:00
6,8
1
33,8
16:15 Uhr

5
16.4
00:00 Uhr
11.7
19:10 Uhr
17.5
06:45 Uhr
10
00:00 Uhr
5.6
17:05 Uhr
5.9
00:00 Uhr
4.2
10:25 Uhr
28
Zeitraffer
15:49
30.4
19:10 Uhr
18.3
05:00 Uhr

80
05:00 Uhr
41
19:35 Uhr
1003.1
00:00 Uhr

1000.4
17:15 Uhr
1001.6
0,000
00:00 Uhr
0,000
00:00:00
3.962
303
765
12:55 Uhr
4.2
12:55 Uhr

08:10:00
4,7
1
29,0
14:20 Uhr

4
17.6
16:00 Uhr
13.1
00:05 Uhr
16.5
04:20 Uhr
11
22:05 Uhr
5.8
17:40 Uhr
5.9
00:00 Uhr
3.5
13:10 Uhr
29
Zeitraffer
15:46
32.2
15:45 Uhr
21.6
17:45 Uhr

94
19:30 Uhr
42
15:20 Uhr
1008.2
23:15 Uhr

1003.0
00:05 Uhr
1005.7
48,000
17:10 Uhr
22,000
00:50:00
2.667
218
699
12:55 Uhr
3.8
12:55 Uhr

03:58:00
1,0
0
35,4
17:10 Uhr

5
21.9
19:30 Uhr
17.0
00:05 Uhr
21.6
17:45 Uhr
16
21:50 Uhr
5.8
15:05 Uhr
5.9
00:00 Uhr
2.5
12:55 Uhr
30
Zeitraffer
26.3
16:10 Uhr
20.6
05:10 Uhr

96
03:05 Uhr
72
16:20 Uhr
1010.6
22:20 Uhr

1008.1
02:35 Uhr
1009.1
2,400
07:15 Uhr
0,200
00:01:00
0.965
121
322
14:00 Uhr
2.9
14:30 Uhr

00:00:00
0,3
0
11,3
22:15 Uhr

2
21.3
16:10 Uhr
19.4
22:15 Uhr
20.6
05:10 Uhr
15
00:00 Uhr
0.0
00:00 Uhr
0.0
00:00 Uhr
0.0
00:00 Uhr
31
Zeitraffer
15:40
25.2
14:10 Uhr
17.1
20:35 Uhr

94
21:45 Uhr
62
13:30 Uhr
1015.7
23:55 Uhr

1012.5
08:25 Uhr
1013.7
7,200
20:05 Uhr
6,200
00:31:00
1.676
187
715
10:20 Uhr
2.6
10:40 Uhr

02:43:00
0,7
0
17,7
20:35 Uhr

3
20.0
17:10 Uhr
15.4
20:30 Uhr
17.1
20:35 Uhr
11
16:55 Uhr
0.0
08:25 Uhr
0.4
13:30 Uhr
0.0
08:25 Uhr

Seiten-Historie || Downloads || Impressum / Datenschutz